Weather History for Minden, LA

Change the Weather History Date:

Wednesday, January 30, 2013

  Actual Average (KBAD) Record (KBAD)
Temperature  
Mean Temperature 44 °F -  
Max Temperature 55 °F 54 °F 78 °F (2002)
Min Temperature 32 °F 36 °F 19 °F (2014)
Degree Days  
Heating Degree Days 22    
Moisture  
Dew Point 37 °F    
Average Humidity 68    
Maximum Humidity 93    
Minimum Humidity 42    
Precipitation  
Precipitation 0.00 in - - ()
Sea Level Pressure  
Sea Level Pressure 29.90 in    
Wind  
Wind Speed 7 mph (West)    
Max Wind Speed 22 mph    
Max Gust Speed 34 mph    
Visibility 10 miles    
Events Rain    
Averages and records for this station are not official NWS values.
T = Trace of Precipitation, MM = Missing Value Source: NWS Daily Summary

Daily Weather History Graph

Daily Weather History Graph

Search for Another Location

Airport:

Trip Planner

Search our weather history database for the weather conditions in past years. The results will help you decide how hot, cold, wet, or windy it might be!

Date:

Astronomy

Jan. 30, 2013 Rise Set
Actual Time 7:08 AM CST 5:44 PM CST
Civil Twilight 6:43 AM CST 6:10 PM CST
Nautical Twilight 6:13 AM CST 6:39 PM CST
Astronomical Twilight 5:44 AM CST 7:09 PM CST
Moon 9:26 PM CST (1/30) 8:52 AM CST (1/30)
Length of Visible Light 11h 27m
Length of Day
10h 35m
Waning Gibbous, 87% of the Moon is Illuminated
Jan 30
Waning Gibbous
Feb 3
Last Quarter
Feb 10
New
Feb 17
First Quarter
Feb 25
Full

Hourly Weather History & Observations

Time (CST) Temp. Windchill Dew Point Humidity Pressure Visibility Wind Dir Wind Speed Gust Speed Precip Events Conditions
12:15 AM 54.9 °F - 52.2 °F 91% 29.69 in 10.0 mi Calm Calm - N/A Rain Light Rain
12:35 AM 54.7 °F - 52.3 °F 92% 29.70 in 10.0 mi Calm Calm - N/A   Mostly Cloudy
12:55 AM 54.9 °F - 52.3 °F 91% 29.70 in 10.0 mi SW 4.6 mph - N/A   Overcast
1:15 AM 54.5 °F - 51.8 °F 91% 29.69 in 10.0 mi Calm Calm - N/A   Overcast
1:35 AM 54.5 °F - 51.8 °F 91% 29.69 in 10.0 mi Calm Calm - N/A   Overcast
1:55 AM 54.7 °F - 52.7 °F 93% 29.71 in 10.0 mi SSW 3.5 mph - N/A   Overcast
2:15 AM 54.5 °F - 52.2 °F 92% 29.70 in 10.0 mi South 3.5 mph - N/A   Overcast
2:35 AM 54.5 °F - 52.0 °F 91% 29.68 in 10.0 mi Calm Calm - N/A   Overcast
2:55 AM 54.5 °F - 52.2 °F 92% 29.69 in 10.0 mi South 4.6 mph - N/A   Overcast
3:15 AM 54.7 °F - 52.2 °F 91% 29.69 in 10.0 mi SSW 3.5 mph - N/A   Overcast
3:35 AM 54.7 °F - 52.2 °F 91% 29.69 in 10.0 mi SW 3.5 mph - N/A   Overcast
3:55 AM 54.9 °F - 52.0 °F 90% 29.70 in 10.0 mi SSW 4.6 mph - N/A   Overcast
4:15 AM 54.9 °F - 51.8 °F 89% 29.68 in 10.0 mi SW 5.8 mph - N/A   Overcast
4:35 AM 55.4 °F - 50.2 °F 83% 29.68 in 10.0 mi SW 4.6 mph - N/A   Overcast
4:55 AM 54.9 °F - 50.0 °F 84% 29.69 in 10.0 mi SW 4.6 mph - N/A   Overcast
5:15 AM 54.9 °F - 49.1 °F 81% 29.69 in 10.0 mi WSW 6.9 mph - N/A   Overcast
5:35 AM 54.5 °F - 47.7 °F 78% 29.69 in 10.0 mi WSW 5.8 mph - N/A   Overcast
5:55 AM 54.5 °F - 45.5 °F 72% 29.70 in 10.0 mi WSW 9.2 mph 18.4 mph N/A   Overcast
6:15 AM 53.6 °F - 43.2 °F 68% 29.71 in 10.0 mi West 12.7 mph 17.3 mph N/A   Mostly Cloudy
6:35 AM 53.1 °F - 41.5 °F 65% 29.71 in 10.0 mi West 9.2 mph - N/A   Mostly Cloudy
6:55 AM 52.7 °F - 40.3 °F 63% 29.71 in 10.0 mi West 9.2 mph 17.3 mph N/A   Mostly Cloudy
7:15 AM 52.2 °F - 39.0 °F 61% 29.73 in 10.0 mi West 11.5 mph 16.1 mph N/A   Mostly Cloudy
7:35 AM 52.3 °F - 37.2 °F 56% 29.74 in 10.0 mi West 12.7 mph 19.6 mph N/A   Overcast
7:55 AM 52.3 °F - 36.5 °F 55% 29.75 in 10.0 mi West 11.5 mph 19.6 mph N/A   Overcast
8:15 AM 52.0 °F - 35.4 °F 53% 29.76 in 10.0 mi West 12.7 mph 21.9 mph N/A   Overcast
8:35 AM 51.6 °F - 35.1 °F 53% 29.76 in 10.0 mi West 13.8 mph 23.0 mph N/A   Mostly Cloudy
8:55 AM 51.1 °F - 35.8 °F 56% 29.78 in 10.0 mi WNW 11.5 mph 20.7 mph N/A   Overcast
9:15 AM 50.2 °F - 37.4 °F 62% 29.81 in 10.0 mi WNW 20.7 mph 29.9 mph N/A   Overcast
9:35 AM 49.8 °F - 37.9 °F 64% 29.81 in 10.0 mi West 19.6 mph 27.6 mph N/A   Overcast
9:55 AM 49.8 °F - 38.1 °F 64% 29.82 in 10.0 mi WNW 15.0 mph 23.0 mph N/A   Overcast
10:15 AM 48.9 °F - 36.9 °F 63% 29.84 in 10.0 mi West 19.6 mph 29.9 mph N/A   Scattered Clouds
10:35 AM 49.1 °F - 36.5 °F 62% 29.85 in 10.0 mi WNW 17.3 mph 29.9 mph N/A   Mostly Cloudy
10:55 AM 48.6 °F - 36.7 °F 64% 29.86 in 10.0 mi WNW 17.3 mph 25.3 mph N/A   Overcast
11:15 AM 49.1 °F - 36.7 °F 62% 29.87 in 10.0 mi West 15.0 mph 24.2 mph N/A   Overcast
11:35 AM 49.3 °F - 34.0 °F 56% 29.87 in 10.0 mi WNW 21.9 mph 29.9 mph N/A   Overcast
11:55 AM 48.2 °F - 32.4 °F 54% 29.90 in 10.0 mi WNW 15.0 mph 24.2 mph N/A   Overcast
12:15 PM 48.4 °F - 32.2 °F 54% 29.90 in 10.0 mi WNW 16.1 mph 24.2 mph N/A   Overcast
12:35 PM 46.9 °F - 32.7 °F 58% 29.92 in 10.0 mi WNW 19.6 mph 32.2 mph N/A   Overcast
12:55 PM 45.5 °F 38.1 °F 30.9 °F 57% 29.94 in 10.0 mi WNW 18.4 mph 34.5 mph N/A   Overcast
1:15 PM 46.6 °F - 30.2 °F 53% 29.94 in 10.0 mi WNW 11.5 mph 25.3 mph N/A   Overcast
1:35 PM 46.9 °F - 28.8 °F 49% 29.95 in 10.0 mi WNW 17.3 mph 24.2 mph N/A   Overcast
1:55 PM 47.7 °F - 28.6 °F 48% 29.96 in 10.0 mi WNW 12.7 mph 31.1 mph N/A   Overcast
2:15 PM 48.6 °F - 28.8 °F 46% 29.95 in 10.0 mi NW 19.6 mph 34.5 mph N/A   Overcast
2:35 PM 49.1 °F - 28.8 °F 45% 29.96 in 10.0 mi WNW 13.8 mph 21.9 mph N/A   Mostly Cloudy
2:55 PM 48.6 °F - 28.9 °F 47% 29.97 in 10.0 mi WNW 18.4 mph 25.3 mph N/A   Mostly Cloudy
3:15 PM 48.2 °F - 26.6 °F 43% 29.99 in 10.0 mi WNW 16.1 mph 32.2 mph N/A   Scattered Clouds
3:35 PM 49.6 °F - 27.1 °F 42% 29.99 in 10.0 mi WNW 13.8 mph 27.6 mph N/A   Scattered Clouds
3:55 PM 48.9 °F - 27.0 °F 43% 30.01 in 10.0 mi WNW 17.3 mph 21.9 mph N/A   Scattered Clouds
4:15 PM 47.7 °F - 27.0 °F 45% 30.02 in 10.0 mi WNW 9.2 mph 26.5 mph N/A   Scattered Clouds
4:35 PM 48.2 °F - 26.2 °F 42% 30.02 in 10.0 mi WNW 13.8 mph 24.2 mph N/A   Scattered Clouds
4:55 PM 48.0 °F - 25.7 °F 42% 30.03 in 10.0 mi WNW 15.0 mph 23.0 mph N/A   Clear
5:15 PM 47.5 °F - 26.1 °F 43% 30.04 in 10.0 mi NW 9.2 mph 20.7 mph N/A   Clear
5:35 PM 46.4 °F 42.9 °F 27.1 °F 47% 30.05 in 10.0 mi WNW 6.9 mph - N/A   Clear
5:55 PM 45.3 °F 43.0 °F 27.7 °F 50% 30.06 in 10.0 mi WNW 4.6 mph - N/A   Clear
6:15 PM 44.4 °F 42.0 °F 27.5 °F 52% 30.07 in 10.0 mi WNW 4.6 mph - N/A   Clear
6:35 PM 43.9 °F 42.3 °F 27.7 °F 53% 30.08 in 10.0 mi West 3.5 mph - N/A   Clear
6:55 PM 43.5 °F 41.9 °F 28.2 °F 55% 30.10 in 10.0 mi West 3.5 mph - N/A   Clear
7:15 PM 42.6 °F 40.9 °F 28.6 °F 58% 30.10 in 10.0 mi WSW 3.5 mph - N/A   Clear
7:35 PM 41.7 °F - 29.8 °F 63% 30.11 in 10.0 mi Calm Calm - N/A   Clear
7:55 PM 39.0 °F - 32.0 °F 76% 30.11 in 10.0 mi Calm Calm - N/A   Clear
8:15 PM 38.1 °F - 30.9 °F 75% 30.12 in 10.0 mi Calm Calm - N/A   Clear
8:35 PM 37.4 °F - 31.5 °F 79% 30.12 in 10.0 mi Calm Calm - N/A   Clear
8:55 PM 36.3 °F - 32.0 °F 84% 30.12 in 10.0 mi Calm Calm - N/A   Clear
9:15 PM 35.1 °F - 31.8 °F 88% 30.12 in 10.0 mi Calm Calm - N/A   Clear
9:35 PM 36.7 °F - 30.4 °F 78% 30.13 in 10.0 mi Calm Calm - N/A   Clear
9:55 PM 35.4 °F - 30.6 °F 82% 30.13 in 10.0 mi Calm Calm - N/A   Clear
10:15 PM 36.5 °F - 30.2 °F 78% 30.14 in 10.0 mi Calm Calm - N/A   Clear
10:35 PM 33.8 °F - 30.7 °F 89% 30.15 in 10.0 mi Calm Calm - N/A   Clear
10:55 PM 33.8 °F - 30.7 °F 89% 30.15 in 10.0 mi Calm Calm - N/A   Clear
11:15 PM 32.9 °F - 30.7 °F 92% 30.15 in 10.0 mi Calm Calm - N/A   Clear
11:35 PM 33.3 °F - 30.9 °F 91% 30.15 in 10.0 mi Calm Calm - N/A   Clear
11:55 PM 32.4 °F - 30.2 °F 92% 30.15 in 10.0 mi Calm Calm - N/A   Clear